Regional Weather Roundup
Issued by NWS

Home | Current Version | Previous Version | Text Only | Print | Product List | Glossary Off
Versions: 1 2 3 4 5 6 7 8 9 10 11 12 13 14 15 16 17 18 19 20 21 22 23 24 25 26 27 28 29 30 31 32 33 34 35 36 37 38 39 40 41 42 43 44 45 46 47 48 49 50

000
ASUS45 KBOU 190710
RWRCO

WEATHER ROUNDUP FOR COLORADO
NATIONAL WEATHER SERVICE PUEBLO CO
1200 AM MST MON FEB 19 2018

NOTE: "FAIR" INDICATES FEW OR NO CLOUDS BELOW 12000 FEET WITH NO
SIGNIFICANT WEATHER AND/OR OBSTRUCTIONS TO VISIBILITY.

COZ001>005-013-030-031-190800-
...NORTHWEST COLORADO...

CITY           SKY/WX    TMP DP  RH WIND       PRES   REMARKS
CRAIG          PTCLDY    30  23  75 NE6       29.42S WCI  24
HAYDEN         CLEAR     34  22  61 NW5       29.41F WCI  30
MEEKER         PTCLDY    41  21  44 S13       29.39F
RABBIT EARS PA NOT AVBL
STEAMBOAT SPGS FAIR      40  17  38 S10G16    29.41F
WALDEN         FAIR      32  16  51 S13       29.45S WCI  22
$$

COZ006>008-011-190800-
...WEST CENTRAL VALLEYS...

CITY           SKY/WX    TMP DP  RH WIND       PRES   REMARKS
GRAND JUNCTION MOCLDY    51  24  34 SW14G22   29.42F
MONTROSE       MOCLDY    49  22  34 SW24G39   29.53F
EAGLE          MOCLDY    44  20  38 SW18G36   29.48S
RIFLE          MOCLDY    50  22  33 SW25G33   29.42F
DELTA          NOT AVBL
NUCLA          FAIR      46  25  42 S24G35    29.59S
$$

COZ017>023-064>068-190800-
...SOUTHWEST COLORADO...

CITY           SKY/WX    TMP DP  RH WIND       PRES   REMARKS
DURANGO        CLOUDY    39  29  67 S12       29.69F
CORTEZ         PTCLDY    44  27  51 S22G30    29.66R
PAGOSA SPRINGS FAIR      38  27  62 SW20G28   29.71F
TELLURIDE      LGT SNOW  34  21  57 SW8G28    29.64F WCI  28
WOLF CREEK PAS HVY SNOW  19  19 100 S26G48    29.72F VSB<1/4 WCI   1
$$

COZ009-010-012-014-032>034-037-058>063-190800-
...CENTRAL COLORADO...

CITY           SKY/WX    TMP DP  RH WIND       PRES   REMARKS
ASPEN          CLOUDY    39  20  46 W8        29.49F
BUENA VISTA    FAIR      34  10  36 E6        29.55F WCI  29
COPPER MTN     MOCLDY    27   9  46 S22G32    29.58F WCI  12
BERTHOUD PASS  FAIR      18   7  62 SW18G26   29.58S WCI   2
COTTONWOOD PAS CLEAR     36  16  44 W17G30    29.57F
GUNNISON       PTCLDY    27  16  63 N6        29.57F WCI  20
KREMMLING      MOCLDY    45  18  33 SW18G29   29.47F
LEADVILLE      PTCLDY    27   8  44 S15G23    29.53F WCI  15
MONARCH PASS   CLEAR     21  12  68 SW35G46   29.70F WCI   2
SALIDA         FAIR      38  14  38 CALM      29.63F
SUNLIGHT       MOCLDY    23  18  80 SW22G40   29.53F WCI   8
WILKERSON PASS CLEAR     23  10  58 SW16G26   29.61R WCI  10
$$

COZ069>075-190800-
...SAN LUIS VALLEY/SANGRE DE CRISTO MOUNTAINS...

CITY           SKY/WX    TMP DP  RH WIND       PRES   REMARKS
ALAMOSA        PTCLDY    36  25  64 SW17      29.66F
DEL NORTE      FAIR      33  27  80 W17       29.63F WCI  21
LA VETA PASS   PTCLDY    28  21  74 S46G68    29.66F WCI  10
SAGUACHE       CLEAR     28  14  54 CALM      29.60F
$$

COZ035-036-038>040-190800-
...NORTHERN COLORADO FRONT RANGE...

CITY           SKY/WX    TMP DP  RH WIND       PRES   REMARKS
DENVER INTL AP FRZ DRZL  20  18  92 NE18      29.64S VSB 3/4 WCI   5
DMNS CITY PARK NOT AVBL
AURORA         FLURRIES  22  22  99 NE12      29.63S WCI  11
FRONT RANGE AP CLOUDY    24  22  93 NE14      29.64F FOG     WCI  11
ERIE MUNI ARPT LGT SNOW  22  21  95 NE10      29.73R WCI  12
BOULDER MUN AP MIX PCPN  25  25 100 E6        29.66R WCI  18
CENTENNIAL     SNOW      23  23 100 E6        29.62R VSB 1/2 WCI  16
BROOMFIELD     MIX PCPN  23  23 100 E6        29.65R WCI  16
LOVELAND       MIX PCPN  18  15  88 NE15      29.69R FOG     WCI   4
LONGMONT       LGT SNOW  25  22  88 NE10      29.70R WCI  15
$$

COZ041-046-047-076>085-087-088-190800-
...PIKES PEAK/PALMER DIVIDE AND SOUTHERN FOOTHILLS...

CITY           SKY/WX    TMP DP  RH WIND       PRES   REMARKS
COLO. SPRINGS  PTCLDY    45  14  28 SE12      29.52R
A. F. ACADEMY  PTCLDY    27  22  82 N13       29.54F WCI  16
SCHRIEVER AFB  NOT AVBL
CHEYENNE MTN   NOT AVBL
ELLICOTT         N/A    N/A N/A N/A E17G24    29.54R
FALCON         FAIR      27  20  75 MISG      29.56S
FORT CARSON    PTCLDY    46  16  29 SE12      29.49S
LIMON          CLOUDY    19  19 100 N18       29.63R FOG     WCI   4
MONUMENT HILL  FOG       21  21 100 N6        29.59S VSB 1/4 WCI  14
CANON CITY     CLEAR     52  21  30 NW3       29.48R
WALSENBURG     FAIR      48  23  37 SW21G29   29.56R
TRINIDAD       CLEAR     50  18  28 W9        29.56F
$$

COZ042>045-048>051-090-091-190800-
...NORTHEAST COLORADO...

CITY           SKY/WX    TMP DP  RH WIND       PRES   REMARKS
GREELEY ARPT   FLURRIES  17  13  84 NE20G26   29.71S WCI   1
AKRON          CLOUDY    14  12  92 N18G28    29.69R WCI  -3
BURLINGTON     CLOUDY    21  20  96 N22G35    29.64R FOG     WCI   5
WRAY           CLOUDY    21  18  86 MISG      29.73R
YUMA           NOT AVBL
STERLING       FLURRIES  18  10  73 N14G21    29.75R WCI   4
HOLYOKE        FLURRIES  19  14  79 N24       29.75R WCI   2
FORT MORGAN    CLOUDY    15  10  82 NE15G23   29.73R WCI   0
$$

COZ086-089-092>099-190800-
...SOUTHEAST COLORADO...

CITY           SKY/WX    TMP DP  RH WIND       PRES   REMARKS
PUEBLO         CLEAR     47  19  33 SW7       29.48R
LA JUNTA       CLEAR     49  17  28 SW13      29.50R
LAMAR          LGT RAIN  40  20  44 NE21G45   29.53R
SPRINGFIELD      N/A     48  30  49 SW14      29.54F
$$




USA.gov is the U.S. government's official web portal to all federal, state and local government web resources and services.